Current conditions around Wisconsin

 

						ASUS43 KMKX 191600
RWRWI

WISCONSIN REGIONAL WEATHER ROUNDUP
NATIONAL WEATHER SERVICE MILWAUKEE/SULLIVAN WI
1100 AM CDT TUE SEP 19 2017

NOTE: "FAIR" INDICATES FEW OR NO CLOUDS BELOW 12,000 FEET WITH NO
SIGNIFICANT WEATHER AND/OR OBSTRUCTIONS TO VISIBILITY.

WIZ001-002-006>008-014>016-023>028-191700-
NORTHWEST WISCONSIN

CITY           SKY/WX    TMP DP  RH WIND       PRES   REMARKS
SUPERIOR ARPT  CLOUDY    62  58  86 NE5       29.95F
ASHLAND        CLOUDY    66  55  67 VRB3      29.97F
HAYWARD        SUNNY     66  56  70 S8        29.97F
SIREN          CLOUDY    65  58  77 SE7       29.94F
CUMBERLAND     CLOUDY    61  55  82 CALM      29.96S
RICE LAKE      SUNNY     65  56  74 E12       29.97F
CHETEK         SUNNY     64  58  78 SE9       29.96F
LADYSMITH      CLOUDY    64  56  74 SE7       30.00F
EAU CLAIRE     SUNNY     67  58  72 SE8       29.94F
MENOMONIE      SUNNY     66  59  77 E8        29.95F
NEW RICHMOND   MOSUNNY   68  58  72 E7        29.93F
OSCEOLA        MOSUNNY   68  60  75 SE10      29.94F
$$

WIZ003>005-009-010-017-018-191700-
NORTH CENTRAL WISCONSIN

CITY           SKY/WX    TMP DP  RH WIND       PRES   REMARKS
MANITOWISH WTR SUNNY     65  55  72 W5        30.01F
ARBOR VITAE    SUNNY     65  55  71 SE6       30.02S
WOODRUFF       SUNNY     65  55  71 SE6       30.02S
RHINELANDER    SUNNY     67  57  70 SE8       30.03F
EAGLE RIVER    SUNNY     65  53  65 SE3       30.03F
LAND O LAKES   SUNNY     65  55  70 E5        30.04F
PHILLIPS       MOSUNNY   65  56  74 SE5       30.00F
TOMAHAWK         N/A     65  54  66 E3        30.02F
MEDFORD        MOSUNNY   64  56  75 SE7       30.01S
MERRILL        NOT AVBL
$$

WIZ029-030-035-036-043>047-191700-
CENTRAL WISCONSIN

CITY           SKY/WX    TMP DP  RH WIND       PRES   REMARKS
WAUSAU         SUNNY     67  57  70 E8        30.00F
MOSINEE        MOSUNNY   68  57  68 SE6       30.02F
MARSHFIELD     SUNNY     67  55  65 SE9       29.99F
STEVENS POINT  MOSUNNY   65  58  76 E6        30.01F
WAUPACA        SUNNY     71  59  66 E3        30.01S
WAUTOMA        SUNNY     71  55  56 E7        30.00F
WISC RAPIDS    SUNNY     72  56  57 E8        30.00F
CAMP DOUGLAS   NOT AVBL
$$

WIZ011>013-019>022-031-037>040-048>050-191700-
NORTHEAST WISCONSIN

CITY           SKY/WX    TMP DP  RH WIND       PRES   REMARKS
ANTIGO         CLOUDY    63  58  84 SE8       30.04F
SHAWANO        CLOUDY    69  62  77 NE5       30.01F
OCONTO           N/A     65  60  85 E7        30.02F
STURGEON BAY   MOSUNNY   67  58  72 VRB6      30.04S
GREEN BAY      CLOUDY    68  63  84 E5        30.02S
MANITOWOC      CLOUDY    65  60  84 E8        30.03S
APPLETON       PTSUNNY   70  57  64 SE6       30.00S
CLINTONVILLE   PTSUNNY   68  59  73 SE7       30.01F
OSHKOSH        SUNNY     69  61  75 E9        30.00S
$$

WIZ032>034-041-042-053>061-191700-
SOUTHWEST WISCONSIN

CITY           SKY/WX    TMP DP  RH WIND       PRES   REMARKS
LA CROSSE      SUNNY     69  60  73 E8        29.95F
SPARTA         SUNNY     67  58  73 NE5       29.98S
VIROQUA        SUNNY     67  62  81 CALM      29.98S
BOSCOBEL       SUNNY     73  59  61 VRB6      29.97S
PRAIRIE DU CHI SUNNY     70  58  66 E3        29.96S
PLATTEVILLE    SUNNY     70  64  81 E5        29.98F
$$

WIZ056-057-062-063-064-067-068-191700-
SOUTH CENTRAL WISCONSIN

CITY           SKY/WX    TMP DP  RH WIND       PRES   REMARKS
REEDSBURG      SUNNY     69  58  69 E5        29.98F
BARABOO/DELLS  SUNNY     67  55  64 E9        30.00S
LONE ROCK      NOT AVBL
MINERAL POINT  SUNNY     72  64  78 E3        29.98F
MADISON        MOSUNNY   71  60  68 E7        29.99S
MIDDLETON      SUNNY     70  60  69 NE3       30.00S
WATERTOWN      SUNNY     73  58  60 NE7       29.99S
MONROE         SUNNY     70  61  73 NE7       29.98F
JANESVILLE     PTSUNNY   72  61  68 VRB6      29.98S
$$

WIZ051-052-058>065-066-070>072-191700-
SOUTHEAST WISCONSIN

CITY           SKY/WX    TMP DP  RH WIND       PRES   REMARKS
MILWAUKEE      MOSUNNY   74  65  73 NE8       29.99S
WAUKESHA       SUNNY     72  61  68 E7        30.00F
MILWAUKEE/TIMM MOSUNNY   73  61  64 E6        30.00S
RACINE         CLOUDY    74  66  76 E5        30.00S
BURLINGTON     MOSUNNY   70  65  83 NE3       29.99R
KENOSHA        PTSUNNY   73  65  75 VRB3      29.99R
FOND DU LAC    MOSUNNY   72  58  61 VRB6      30.00S
SHEBOYGAN      CLOUDY    68  63  84 E7        30.01S
WEST BEND        N/A     70  63  78 E6        30.01S
JUNEAU         SUNNY     71  56  58 E5        30.01S
$$

LSZ147-162-191700-
LAKE SUPERIOR

STATION/POSITION TIME  TEMP    WIND        PRES    WAVE
                       AIR SEA DIR/SP/G            HT/PER
                 (UTC) (F)     (DEG/KT/KT) (MB)    (FT/S)
W MID LAKE BUOY  1450   57 55  150/  8/ 10 1015.9R   1/ 3
DEVILS ISLAND    1500   60     120/  6/  7 1015.2R
SAXON HARBOR     1540   69     170/  7/ 11 1014.2F
$$

LMZ867-665-643>646-191700-
LAKE MICHIGAN

STATION/POSITION TIME  TEMP    WIND        PRES    WAVE
                       AIR SEA DIR/SP/G            HT/PER
                 (UTC) (F)     (DEG/KT/KT) (MB)    (FT/S)
S GREEN BAY BUOY 1530   65 66  120/ 10/ 12 1016.3F
N MID LAKE BUOY  1450   63 64  120/ 12/ 14 1018.1R   2/ 4
NORTHPORT PIER   1540   65     120/  9/ 11 1017.3S
KEWAUNEE LAKESHO 1530   62      70/  3/  6 1016.1F
PORT WASHINGTON  1530   68     100/  5/  7 1016.9R
ATWATER BUOY     1409   68 67  130/  6/  6 1015.7R
MILWAUKEE LAKESH 1540   69      60/  6/  7   N/A
S MID LAKE BUOY  1450   67 68   80/ 10/ 12 1014.9R   1/ 3
KENOSHA   LAKESH 1500   70     120/  3/  3 1015.2
$$

TC  - TEMPERATURE IN CELSIUS
VSB - VISIBILITY IN STATUTE MILES
WCI - WIND CHILL INDEX
HX  - HEAT INDEX




ASUS43 KMKX 191611
RWRWI

WISCONSIN REGIONAL WEATHER ROUNDUP
NATIONAL WEATHER SERVICE MILWAUKEE/SULLIVAN WI
1100 AM CDT TUE SEP 19 2017

NOTE: "FAIR" INDICATES FEW OR NO CLOUDS BELOW 12,000 FEET WITH NO
SIGNIFICANT WEATHER AND/OR OBSTRUCTIONS TO VISIBILITY.

WIZ001-002-006>008-014>016-023>028-191700-
NORTHWEST WISCONSIN

CITY           SKY/WX    TMP DP  RH WIND       PRES   REMARKS
SUPERIOR ARPT  CLOUDY    63  58  84 NE8       29.94F
ASHLAND        CLOUDY    66  55  67 VRB3      29.97F
HAYWARD        SUNNY     66  56  70 S8        29.97F
SIREN          CLOUDY    66  59  76 S13       29.93F
CUMBERLAND     MOSUNNY   63  55  77 E3        29.95F
RICE LAKE      SUNNY     66  56  71 SE9       29.97F
CHETEK         SUNNY     66  59  76 SE10      29.96F
LADYSMITH      MOSUNNY   66  56  70 E8        29.99F
EAU CLAIRE     SUNNY     67  58  72 SE8       29.94F
MENOMONIE      SUNNY     67  60  76 E9        29.94F
NEW RICHMOND   MOSUNNY   69  59  72 E7        29.93S
OSCEOLA        MOSUNNY   69  60  74 E9        29.94F
$$

WIZ003>005-009-010-017-018-191700-
NORTH CENTRAL WISCONSIN

CITY           SKY/WX    TMP DP  RH WIND       PRES   REMARKS
MANITOWISH WTR SUNNY     65  55  70 SE8       30.01F
ARBOR VITAE    SUNNY     67  56  67 SE7       30.02S
WOODRUFF       SUNNY     67  56  67 SE7       30.02S
RHINELANDER    SUNNY     67  57  70 SE8       30.03F
EAGLE RIVER    SUNNY     66  52  62 S6        30.03S
LAND O LAKES   SUNNY     66  55  66 SE6       30.05S
PHILLIPS       MOSUNNY   65  56  74 SE5       30.00F
TOMAHAWK         N/A     67  53  61 E6        30.02F
MEDFORD        SUNNY     65  54  69 SE6       30.00F
MERRILL        NOT AVBL
$$

WIZ029-030-035-036-043>047-191700-
CENTRAL WISCONSIN

CITY           SKY/WX    TMP DP  RH WIND       PRES   REMARKS
WAUSAU         SUNNY     67  57  70 E8        30.00F
MOSINEE        MOSUNNY   68  57  68 SE6       30.02F
MARSHFIELD     SUNNY     67  55  65 SE9       29.99F
STEVENS POINT  SUNNY     67  55  66 E6        30.01F
WAUPACA        SUNNY     71  58  63 SE6       30.01S
WAUTOMA        SUNNY     71  55  56 E7        30.00F
WISC RAPIDS    SUNNY     72  56  57 E8        30.00F
CAMP DOUGLAS   SUNNY     70  59  68 E6        29.98F
$$

WIZ011>013-019>022-031-037>040-048>050-191700-
NORTHEAST WISCONSIN

CITY           SKY/WX    TMP DP  RH WIND       PRES   REMARKS
ANTIGO         CLOUDY    64  58  82 W6        30.05R
SHAWANO        CLOUDY    69  62  78 NE7       30.01S
OCONTO         CLOUDY    65  60  84 E6        30.02F
STURGEON BAY   MOSUNNY   67  58  72 VRB6      30.04S
GREEN BAY      CLOUDY    68  63  84 E5        30.02S
MANITOWOC      CLOUDY    65  60  84 E8        30.03S
APPLETON       PTSUNNY   70  57  64 SE6       30.00S
CLINTONVILLE   PTSUNNY   70  59  68 E3        30.02R
OSHKOSH        SUNNY     69  61  75 E9        30.00S
$$

WIZ032>034-041-042-053>061-191700-
SOUTHWEST WISCONSIN

CITY           SKY/WX    TMP DP  RH WIND       PRES   REMARKS
LA CROSSE      SUNNY     69  60  73 E8        29.95F
SPARTA         SUNNY     68  59  72 NE3       29.98S
VIROQUA        SUNNY     69  63  79 E3        29.98S
BOSCOBEL       SUNNY     73  59  61 VRB6      29.97S
PRAIRIE DU CHI SUNNY     71  59  65 S3        29.96S
PLATTEVILLE    SUNNY     71  64  79 E6        29.98S
$$

WIZ056-057-062-063-064-067-068-191700-
SOUTH CENTRAL WISCONSIN

CITY           SKY/WX    TMP DP  RH WIND       PRES   REMARKS
REEDSBURG      SUNNY     69  59  68 E7        29.98F
BARABOO/DELLS  SUNNY     69  56  62 E8        29.99F
LONE ROCK      SUNNY     71  61  70 E8        29.97F
MINERAL POINT  SUNNY     73  64  73 E7        29.98S
MADISON        MOSUNNY   71  60  68 E7        29.99S
MIDDLETON      SUNNY     71  61  69 SE7       30.00S
WATERTOWN      SUNNY     74  60  61 E6        29.99S
MONROE         SUNNY     72  61  68 NE8       29.98F
JANESVILLE     PTSUNNY   72  61  68 VRB6      29.98S
$$

WIZ051-052-058>065-066-070>072-191700-
SOUTHEAST WISCONSIN

CITY           SKY/WX    TMP DP  RH WIND       PRES   REMARKS
MILWAUKEE      MOSUNNY   74  65  73 NE8       29.99S
WAUKESHA       SUNNY     72  61  68 E7        30.00F
MILWAUKEE/TIMM MOSUNNY   73  61  64 E6        30.00S
RACINE         CLOUDY    74  66  76 E5        30.00S
BURLINGTON     SUNNY     71  64  79 N3        29.98F
KENOSHA        PTSUNNY   73  65  75 VRB3      29.99R
FOND DU LAC    MOSUNNY   72  58  61 VRB6      30.00S
SHEBOYGAN      CLOUDY    68  63  84 E7        30.01S
WEST BEND        N/A     72  61  68 CALM      30.00F
JUNEAU         SUNNY     72  56  57 E6        30.01S
$$

LSZ147-162-191700-
LAKE SUPERIOR

STATION/POSITION TIME  TEMP    WIND        PRES    WAVE
                       AIR SEA DIR/SP/G            HT/PER
                 (UTC) (F)     (DEG/KT/KT) (MB)    (FT/S)
W MID LAKE BUOY  1550   57 55  140/  8/ 10 1015.6F   1/ 3
DEVILS ISLAND    1600   61      90/  3/  4 1015.2S
SAXON HARBOR     1540   69     170/  7/ 11 1014.2F
$$

LMZ867-665-643>646-191700-
LAKE MICHIGAN

STATION/POSITION TIME  TEMP    WIND        PRES    WAVE
                       AIR SEA DIR/SP/G            HT/PER
                 (UTC) (F)     (DEG/KT/KT) (MB)    (FT/S)
S GREEN BAY BUOY 1600   66 66  110/  6/  6 1016.5
N MID LAKE BUOY  1550   63 64  120/ 10/ 10 1018.0F   2/ 3
NORTHPORT PIER   1540   65     120/  9/ 11 1017.3S
KEWAUNEE LAKESHO 1548   62      80/  5/  7 1016.1F
PORT WASHINGTON  1530   68     100/  5/  7 1016.9R
ATWATER BUOY     1509   67 68   90/  8/ 12 1015.8R
MILWAUKEE LAKESH 1540   69      60/  6/  7   N/A
S MID LAKE BUOY  1550   66 68   70/ 10/ 12 1015.3R   1/ 4
KENOSHA   LAKESH 1600   69      60/  2/  3 1015.2
$$

TC  - TEMPERATURE IN CELSIUS
VSB - VISIBILITY IN STATUTE MILES
WCI - WIND CHILL INDEX
HX  - HEAT INDEX




ASUS43 KMKX 191621
RWRWI

WISCONSIN REGIONAL WEATHER ROUNDUP
NATIONAL WEATHER SERVICE MILWAUKEE/SULLIVAN WI
1100 AM CDT TUE SEP 19 2017

NOTE: "FAIR" INDICATES FEW OR NO CLOUDS BELOW 12,000 FEET WITH NO
SIGNIFICANT WEATHER AND/OR OBSTRUCTIONS TO VISIBILITY.

WIZ001-002-006>008-014>016-023>028-191700-
NORTHWEST WISCONSIN

CITY           SKY/WX    TMP DP  RH WIND       PRES   REMARKS
SUPERIOR ARPT  PTSUNNY   64  58  82 NE8       29.94F
ASHLAND        CLOUDY    66  55  67 VRB3      29.97F
HAYWARD        SUNNY     66  56  70 S8        29.97F
SIREN          CLOUDY    66  59  76 S13       29.93F
CUMBERLAND     MOSUNNY   63  55  77 E3        29.95F
RICE LAKE      SUNNY     66  56  71 SE9       29.97F
CHETEK         SUNNY     66  59  76 SE10      29.96F
LADYSMITH      MOSUNNY   66  56  70 E8        29.99F
EAU CLAIRE     SUNNY     67  58  72 SE8       29.94F
MENOMONIE      SUNNY     69  60  74 E7        29.93F
NEW RICHMOND   MOSUNNY   69  59  72 E7        29.93S
OSCEOLA        MOSUNNY   69  60  74 E9        29.94F
$$

WIZ003>005-009-010-017-018-191700-
NORTH CENTRAL WISCONSIN

CITY           SKY/WX    TMP DP  RH WIND       PRES   REMARKS
MANITOWISH WTR SUNNY     65  55  70 SE8       30.01F
ARBOR VITAE    SUNNY     67  56  67 SE7       30.02S
WOODRUFF       SUNNY     67  56  67 SE7       30.02S
RHINELANDER    SUNNY     67  57  70 SE8       30.03F
EAGLE RIVER    SUNNY     66  52  62 S6        30.03S
LAND O LAKES   SUNNY     67  55  64 S3        30.04S
PHILLIPS       SUNNY     67  57  69 SE5       29.99F
TOMAHAWK         N/A     67  53  61 E6        30.02F
MEDFORD        SUNNY     65  54  69 SE6       30.00F
MERRILL        NOT AVBL
$$

WIZ029-030-035-036-043>047-191700-
CENTRAL WISCONSIN

CITY           SKY/WX    TMP DP  RH WIND       PRES   REMARKS
WAUSAU         SUNNY     67  57  70 E8        30.00F
MOSINEE        MOSUNNY   68  57  68 SE6       30.02F
MARSHFIELD     SUNNY     67  55  65 SE9       29.99F
STEVENS POINT  SUNNY     67  55  66 E6        30.01F
WAUPACA        SUNNY     71  58  63 SE6       30.01S
WAUTOMA        SUNNY     71  55  56 E7        30.00F
WISC RAPIDS    SUNNY     72  56  57 E8        30.00F
CAMP DOUGLAS   SUNNY     70  59  68 E6        29.98F
$$

WIZ011>013-019>022-031-037>040-048>050-191700-
NORTHEAST WISCONSIN

CITY           SKY/WX    TMP DP  RH WIND       PRES   REMARKS
ANTIGO         CLOUDY    64  58  82 W6        30.05R
SHAWANO        CLOUDY    70  63  79 NE7       30.01S
OCONTO         CLOUDY    65  60  84 E6        30.02F
STURGEON BAY   MOSUNNY   67  58  72 VRB6      30.04S
GREEN BAY      CLOUDY    68  63  84 E5        30.02S
MANITOWOC      CLOUDY    64  61  88 E8        30.03S
APPLETON       PTSUNNY   70  57  64 SE6       30.00S
CLINTONVILLE   PTSUNNY   70  59  68 E3        30.01S
OSHKOSH        SUNNY     69  61  75 E9        30.00S
$$

WIZ032>034-041-042-053>061-191700-
SOUTHWEST WISCONSIN

CITY           SKY/WX    TMP DP  RH WIND       PRES   REMARKS
LA CROSSE      SUNNY     69  60  73 E8        29.95F
SPARTA         SUNNY     68  59  72 NE3       29.98S
VIROQUA        SUNNY     69  63  79 E3        29.98S
BOSCOBEL       SUNNY     73  59  61 VRB6      29.97S
PRAIRIE DU CHI SUNNY     71  59  65 S3        29.96S
PLATTEVILLE    SUNNY     71  64  79 E6        29.98S
$$

WIZ056-057-062-063-064-067-068-191700-
SOUTH CENTRAL WISCONSIN

CITY           SKY/WX    TMP DP  RH WIND       PRES   REMARKS
REEDSBURG      SUNNY     69  59  68 E7        29.98F
BARABOO/DELLS  SUNNY     69  56  62 E8        29.99F
LONE ROCK      SUNNY     71  61  70 E8        29.97F
MINERAL POINT  SUNNY     73  64  73 E7        29.98S
MADISON        MOSUNNY   71  60  68 E7        29.99S
MIDDLETON      SUNNY     71  61  69 SE7       30.00S
WATERTOWN      SUNNY     74  60  61 E6        29.99S
MONROE         SUNNY     72  61  68 NE8       29.98F
JANESVILLE     PTSUNNY   72  61  68 VRB6      29.98S
$$

WIZ051-052-058>065-066-070>072-191700-
SOUTHEAST WISCONSIN

CITY           SKY/WX    TMP DP  RH WIND       PRES   REMARKS
MILWAUKEE      MOSUNNY   74  65  73 NE8       29.99S
WAUKESHA       SUNNY     72  61  68 E7        30.00F
MILWAUKEE/TIMM MOSUNNY   73  61  64 E6        30.00S
RACINE         CLOUDY    74  66  76 E5        30.00S
BURLINGTON     SUNNY     71  64  79 N3        29.98F
KENOSHA        PTSUNNY   74  65  73 VRB3      29.99S
FOND DU LAC    MOSUNNY   72  58  61 VRB6      30.00S
SHEBOYGAN      CLOUDY    68  63  84 E7        30.01S
WEST BEND        N/A     72  61  68 CALM      30.00F
JUNEAU         SUNNY     72  56  57 E6        30.01S
$$

LSZ147-162-191700-
LAKE SUPERIOR

STATION/POSITION TIME  TEMP    WIND        PRES    WAVE
                       AIR SEA DIR/SP/G            HT/PER
                 (UTC) (F)     (DEG/KT/KT) (MB)    (FT/S)
W MID LAKE BUOY  1550   57 55  140/  8/ 10 1015.6F   1/ 3
DEVILS ISLAND    1600   61      90/  3/  4 1015.2S
SAXON HARBOR     1540   69     170/  7/ 11 1014.2F
$$

LMZ867-665-643>646-191700-
LAKE MICHIGAN

STATION/POSITION TIME  TEMP    WIND        PRES    WAVE
                       AIR SEA DIR/SP/G            HT/PER
                 (UTC) (F)     (DEG/KT/KT) (MB)    (FT/S)
S GREEN BAY BUOY 1600   66 66  110/  6/  6 1016.5
N MID LAKE BUOY  1550   63 64  120/ 10/ 10 1018.0F   2/ 3
NORTHPORT PIER   1540   65     120/  9/ 11 1017.3S
KEWAUNEE LAKESHO 1554   62      90/  4/  6 1016.0F
PORT WASHINGTON  1530   68     100/  5/  7 1016.9R
ATWATER BUOY     1509   67 68   90/  8/ 12 1015.8R
MILWAUKEE LAKESH 1600   67      60/  9/ 10   N/A
S MID LAKE BUOY  1550   66 68   70/ 10/ 12 1015.3R   1/ 4
KENOSHA   LAKESH 1600   69      60/  2/  3 1015.2
$$

TC  - TEMPERATURE IN CELSIUS
VSB - VISIBILITY IN STATUTE MILES
WCI - WIND CHILL INDEX
HX  - HEAT INDEX